Open Text ROA 2010-2024 | OTEX

Current and historical return on assets (ROA) values for Open Text (OTEX) over the last 10 years. Return on assets can be defined as an indicator of how profitable a company is relative to its total assets. Calculated by dividing a company's operating earnings by its total assets.
Open Text ROA - Return on Assets Historical Data
Date TTM Net Income Total Assets Return on Assets
2024-03-31 $0.17B $16.39B 1.01%
2023-12-31 $0.13B $16.44B 0.76%
2023-09-30 $0.35B $16.55B 2.23%
2023-06-30 $0.15B $17.09B 1.08%
2023-03-31 $0.30B $17.43B 2.46%
2022-12-31 $0.32B $11.22B 3.05%
2022-09-30 $0.15B $10.08B 1.46%
2022-06-30 $0.40B $10.18B 3.97%
2022-03-31 $0.48B $10.16B 4.83%
2021-12-31 $0.49B $10.17B 5.07%
2021-09-30 $0.34B $9.52B 3.53%
2021-06-30 $0.31B $9.61B 3.17%
2021-03-31 $0.16B $9.56B 1.56%
2020-12-31 $0.09B $9.77B 0.89%
2020-09-30 $0.26B $10.16B 2.62%
2020-06-30 $0.23B $10.24B 2.46%
2020-03-31 $0.28B $10.16B 3.13%
2019-12-31 $0.33B $9.50B 3.91%
2019-09-30 $0.32B $8.02B 4.10%
2019-06-30 $0.29B $7.93B 3.66%
2019-03-31 $0.28B $7.87B 3.55%
2018-12-31 $0.26B $7.73B 3.37%
2018-09-30 $0.24B $7.62B 3.13%
2018-06-30 $0.24B $7.77B 3.13%
2018-03-31 $0.23B $7.82B 2.95%
2017-12-31 $0.19B $7.74B 2.50%
2017-09-30 $0.15B $7.70B 2.03%
2017-06-30 $1.03B $7.48B 14.73%
2017-03-31 $1.07B $7.43B 16.69%
2016-12-31 $1.11B $6.88B 19.76%
2016-09-30 $1.16B $6.07B 23.15%
2016-06-30 $0.28B $5.15B 6.25%
2016-03-31 $0.27B $4.42B 6.15%
2015-12-31 $0.23B $4.32B 5.21%
2015-09-30 $0.21B $4.27B 5.01%
2015-06-30 $0.24B $4.35B 5.72%
2015-03-31 $0.25B $4.32B 6.36%
2014-12-31 $0.27B $3.90B 6.99%
2014-09-30 $0.25B $3.87B 7.03%
2014-06-30 $0.22B $3.90B 6.63%
2014-03-31 $0.17B $3.96B 5.78%
2013-12-31 $0.15B $2.68B 5.73%
2013-09-30 $0.16B $2.67B 6.06%
2013-06-30 $0.15B $2.66B 5.66%
2013-03-31 $0.11B $2.67B 4.45%
2012-12-31 $0.12B $2.58B 4.90%
2012-09-30 $0.11B $2.56B 4.43%
2012-06-30 $0.13B $2.44B 5.36%
2012-03-31 $0.15B $2.47B 6.62%
2011-12-31 $0.15B $2.38B 7.11%
2011-09-30 $0.14B $2.03B 7.14%
2011-06-30 $0.12B $1.93B 6.72%
2011-03-31 $0.15B $1.92B 8.21%
2010-12-31 $0.12B $1.79B 7.12%
2010-09-30 $0.11B $1.74B 6.27%
2010-06-30 $0.09B $1.71B 5.12%
2010-03-31 $0.06B $1.72B 3.30%
2009-12-31 $0.06B $1.71B 4.00%
Sector Industry Market Cap Revenue
Computer and Technology Computer Software $8.282B $4.485B
Open Text Corporation is engaged in development of innovative intranet, extranet and e-Business applications. Since creating one of the first search engines to index the World Wide Web, the company has remained at the forefront of Internet-based technologies. Open Text solutions allow individuals, teams, organizations, and global trading communities to collaborate on projects, share ideas and accelerate innovation to the fastest possible speed. Open Text Corporation is headquartered in Waterloo, Canada.
Stock Name Country Market Cap PE Ratio
Microsoft (MSFT) United States $3173.595B 36.97
Oracle (ORCL) United States $341.061B 27.76
Salesforce (CRM) United States $269.656B 45.08
Adobe (ADBE) United States $216.523B 36.20
Intuit (INTU) United States $185.433B 57.69
Synopsys (SNPS) United States $89.411B 61.91
Cadence Design Systems (CDNS) United States $80.195B 76.35
Dassault Systemes SA (DASTY) France $56.522B 36.72
Autodesk (ADSK) United States $46.362B 45.30
ANSYS (ANSS) United States $28.650B 53.02
MicroStrategy (MSTR) United States $27.388B 0.00
PTC (PTC) United States $21.857B 57.97
SS&C Technologies Holdings (SSNC) United States $15.324B 14.51
Manhattan Associates (MANH) United States $13.875B 73.64
Descartes Systems Group (DSGX) Canada $8.441B 73.89
Trend Micro (TMICY) Japan $6.479B 46.93
Pegasystems (PEGA) United States $5.156B 45.59
CommVault Systems (CVLT) United States $4.801B 78.46
Blackbaud (BLKB) United States $4.089B 35.20
ACI Worldwide (ACIW) United States $3.740B 17.91
Progress Software (PRGS) United States $2.186B 13.90
Verint Systems (VRNT) United States $1.925B 17.94
Sapiens (SPNS) Israel $1.877B 25.59
BlackBerry (BB) Canada $1.676B 0.00
PROS Holdings (PRO) United States $1.466B 0.00
Simulations Plus (SLP) United States $0.993B 73.04
Rand Worldwide (RWWI) United States $0.647B 0.00
Magic Software Enterprises (MGIC) Israel $0.513B 10.88
American Software (AMSWA) United States $0.359B 30.00
Canaan (CAN) China $0.238B 0.00
OptimizeRx (OPRX) United States $0.225B 0.00
Rigetti Computing (RGTI) United States $0.182B 0.00
Icad Inc (ICAD) United States $0.043B 0.00
Neonode (NEON) Sweden $0.037B 0.00
NetSol Technologies (NTWK) United States $0.030B 0.00
Smith Micro Software (SMSI) United States $0.024B 0.00
Hanryu Holdings (HRYU) South Korea $0.022B 0.00
Wetouch Technology (WETH) $0.021B 0.00
GSE Systems (GVP) United States $0.011B 0.00
SAP SE (SAP) Germany $0.000B 49.88